Rochester, MN

9:19 AM CDT on August 25, 2019 (GMT -0500)
Rochester International

Weather History for KRST - July, 2019

Change the Weather History Date:

Tuesday, July 16, 2019

  Actual Average Record
Temperature  
Mean Temperature 75 °F 72 °F  
Max Temperature 83 °F 82 °F 101 °F (1936)
Min Temperature 66 °F 62 °F 44 °F (1933)
Degree Days  
Heating Degree Days 0 0  
Month to date heating degree days 0 0  
Since 1 July heating degree days 0 0  
Cooling Degree Days 10 7  
Month to date cooling degree days 141 112  
Year to date cooling degree days 246 276  
Growing Degree Days 24 (Base 50)    
Moisture  
Dew Point 68 °F    
Average Humidity 81    
Maximum Humidity 93    
Minimum Humidity 69    
Precipitation  
Precipitation 0.17 in 0.15 in 2.00 in (1957)
Month to date precipitation 4.62 2.37  
Year to date precipitation 32.72 17.49  
Snow  
Snow 0.00 in 0.00 in 0.00 in (2012)
Month to date snowfall 0.0 0.0  
Since 1 July snowfall 0.0 0.0  
Snow Depth 0.00 in    
Sea Level Pressure  
Sea Level Pressure 29.89 in    
Wind  
Wind Speed 7 mph (WSW)    
Max Wind Speed 17 mph    
Max Gust Speed 23 mph    
Visibility 9 miles    
Events Rain , Thunderstorm    
T = Trace of Precipitation, MM = Missing Value Source: NWS Daily Summary

Daily Weather History Graph

Daily Weather History Graph

Search for Another Location

Airport or City:

Astronomy

Jul. 16, 2019 Rise Set
Actual Time 5:42 AM CDT 8:49 PM CDT
Civil Twilight 5:07 AM CDT 9:24 PM CDT
Nautical Twilight 4:22 AM CDT 10:08 PM CDT
Astronomical Twilight 3:28 AM CDT 11:02 PM CDT
Moon 8:56 PM CDT (7/16) 5:19 AM CDT (7/16)
Length of Visible Light 16h 16m
Length of Day
15h 07m
Full, 100% of the Moon is Illuminated
Jul 16
Full
Jul 16
Full
Jul 24
Last Quarter
Jul 31
New
Aug 7
First Quarter

Hourly Weather History & Observations

Time (CDT) Temp. Heat Index Dew Point Humidity Pressure Visibility Wind Dir Wind Speed Gust Speed Precip Events Conditions
12:54 AM 70.0 °F - 66.9 °F 90% 29.86 in 10.0 mi South 15.0 mph - 0.03 in Rain Light Rain
1:54 AM 68.0 °F - 62.1 °F 81% 29.87 in 10.0 mi SSW 15.0 mph - 0.00 in   Clear
2:54 AM 66.0 °F - 62.1 °F 87% 29.85 in 10.0 mi SSW 11.5 mph - N/A   Clear
3:54 AM 66.9 °F - 62.1 °F 84% 29.85 in 10.0 mi SSW 9.2 mph - N/A   Scattered Clouds
4:54 AM 68.0 °F - 63.0 °F 84% 29.85 in 10.0 mi SSW 8.1 mph - N/A   Scattered Clouds
5:54 AM 66.9 °F - 63.0 °F 87% 29.86 in 10.0 mi SW 8.1 mph - N/A   Mostly Cloudy
6:54 AM 69.1 °F - 64.9 °F 87% 29.86 in 10.0 mi SW 10.4 mph - N/A   Clear
7:54 AM 72.0 °F - 66.9 °F 84% 29.87 in 10.0 mi SW 11.5 mph - N/A   Mostly Cloudy
8:54 AM 73.9 °F - 66.9 °F 79% 29.88 in 10.0 mi SW 10.4 mph - N/A   Overcast
9:54 AM 77.0 °F - 69.1 °F 76% 29.91 in 10.0 mi WSW 9.2 mph - N/A   Overcast
10:54 AM 79.0 °F - 71.1 °F 77% 29.91 in 10.0 mi WSW 6.9 mph - N/A   Mostly Cloudy
11:38 AM 81.0 °F 85.2 °F 72.0 °F 74% 29.92 in 10.0 mi SSW 8.1 mph - N/A   Mostly Cloudy
11:54 AM 82.0 °F 86.7 °F 72.0 °F 71% 29.90 in 10.0 mi Variable 4.6 mph - N/A   Mostly Cloudy
12:54 PM 82.9 °F 88.8 °F 73.0 °F 72% 29.89 in 10.0 mi Variable 3.5 mph - N/A   Scattered Clouds
1:54 PM 81.0 °F 84.9 °F 71.1 °F 72% 29.88 in 10.0 mi Calm Calm - N/A   Scattered Clouds
2:42 PM 79.0 °F - 72.0 °F 79% 29.91 in 10.0 mi WSW 6.9 mph - N/A   Mostly Cloudy
2:54 PM 79.0 °F - 72.0 °F 79% 29.90 in 10.0 mi West 6.9 mph - N/A   Overcast
3:14 PM 75.9 °F - 72.0 °F 87% 29.91 in 10.0 mi West 9.2 mph - 0.03 in Rain , Thunderstorm Light Thunderstorms and Rain
3:29 PM 75.9 °F - 73.0 °F 91% 29.92 in 1.8 mi WSW 6.9 mph - 0.03 in Rain , Thunderstorm Heavy Thunderstorms and Rain
3:38 PM 75.0 °F - 72.0 °F 90% 29.92 in 2.0 mi WSW 6.9 mph - 0.09 in Rain , Thunderstorm Light Thunderstorms and Rain
3:42 PM 75.0 °F - 72.0 °F 90% 29.92 in 6.0 mi West 9.2 mph - 0.09 in Rain , Thunderstorm Light Rain
3:54 PM 73.9 °F - 72.0 °F 93% 29.90 in 4.0 mi West 13.8 mph - 0.11 in Rain , Thunderstorm Rain
4:01 PM 73.9 °F - 72.0 °F 93% 29.91 in 6.0 mi WNW 13.8 mph - 0.02 in Rain , Thunderstorm Light Rain
4:15 PM 73.0 °F - 71.1 °F 93% 29.91 in 5.0 mi NW 15.0 mph 20.7 mph 0.03 in Rain , Thunderstorm Light Rain
4:21 PM 73.0 °F - 71.1 °F 93% 29.91 in 5.0 mi NW 11.5 mph - 0.04 in Rain Rain
4:33 PM 73.0 °F - 71.1 °F 93% 29.91 in 10.0 mi NNW 15.0 mph - 0.05 in Rain Light Rain
4:54 PM 72.0 °F - 69.1 °F 91% 29.89 in 10.0 mi North 15.0 mph - 0.06 in Rain Light Rain
5:54 PM 70.0 °F - 64.9 °F 84% 29.88 in 10.0 mi East 8.1 mph - 0.00 in Rain Light Rain
6:54 PM 70.0 °F - 66.0 °F 87% 29.89 in 10.0 mi East 6.9 mph - 0.00 in   Overcast
7:54 PM 72.0 °F - 64.9 °F 78% 29.89 in 10.0 mi Calm Calm - N/A   Clear
8:54 PM 68.0 °F - 66.0 °F 93% 29.90 in 10.0 mi SW 5.8 mph - N/A   Clear
9:54 PM 68.0 °F - 64.9 °F 90% 29.91 in 10.0 mi WSW 5.8 mph - N/A   Clear
10:54 PM 66.9 °F - 64.9 °F 93% 29.91 in 10.0 mi Calm Calm - N/A   Clear
11:54 PM 66.9 °F - 64.9 °F 93% 29.92 in 10.0 mi Calm Calm - N/A   Clear